Flag for Canada Weather past 2 weeks in Burnaby, British Columbia, Canada

Now
72 °F

Sunny.


Feels Like: 75 °F
Forecast: 58 / 82 °F
Wind: 9 mph from West

Location: Vancouver International Air-Port

Current Time: Jul 31, 2014 at 12:18:26 PM

Latest Report: Jul 31, 2014 at 11:00 AM


Visibility: 30 mi

Pressure: 30.11 "Hg

Humidity: 69%

Dew point: 61 °F

Location of BurnabyLocation

Historic Weather in Burnaby — Graph

°F

Burnaby temperature yesterday

Maximum temperature yesterday: 75 °F (at 5:00 PM)
Minimum temperature yesterday: 57 °F (at 5:00 AM)
Average temperature yesterday: 67 °F

Past Weeks' High & Low Weather Summary

 TemperatureHumidityPressure
High77 °F (Jul 29, 4:00 PM)100% (Jul 24, 3:00 AM)30.21 "Hg (Jul 24, 3:00 AM)
Low54 °F (Jul 25, 6:00 AM)49% (Jul 21, 8:00 PM)29.88 "Hg (Jul 19, 8:00 PM)
Average65 °F75%30.05 "Hg
* Reported Jul 16 11:00 AM — Jul 31 11:00 AM, Burnaby, Weather by CustomWeather, © 2014

Note: Actual official high and low records may vary slightly from our data, if they occured in-between our weather recording intervals... More about our weather records

Advertising

Burnaby weather history for previous 24 hours

 ConditionsComfort  
Time TempWeatherWind HumidityBarometerVisibility
11:00 AM
Jul 31
72 °FSunny.9 mph69%30.11 "Hg30 mi
10:00 AM70 °FSunny.8 mph73%30.12 "Hg30 mi
9:00 AM70 °FSunny.5 mph69%30.13 "Hg30 mi
8:00 AM66 °FSunny.No wind68%30.14 "Hg30 mi
7:00 AM63 °FSunny.7 mph77%30.13 "Hg30 mi
6:00 AM59 °FClear.8 mph88%30.12 "Hg30 mi
5:00 AM61 °FClear.8 mph83%30.11 "Hg30 mi
4:00 AM61 °FClear.8 mph88%30.10 "Hg30 mi
3:00 AM63 °FClear.10 mph83%30.09 "Hg30 mi
2:00 AM63 °FClear.9 mph77%30.09 "Hg30 mi
1:00 AM64 °FClear.6 mph83%30.09 "Hg30 mi
12:00 AM66 °FClear.3 mph88%30.09 "Hg30 mi
11:00 PM
Jul 30
68 °FClear.No wind88%30.08 "Hg30 mi
10:00 PM68 °FClear.5 mph88%30.08 "Hg30 mi
9:00 PM70 °FSunny.3 mph73%30.06 "Hg30 mi
8:00 PM72 °FSunny.5 mph69%30.07 "Hg30 mi
7:00 PM73 °FSunny.5 mph65%30.07 "Hg30 mi
6:00 PM73 °FSunny.6 mph61%30.08 "Hg30 mi
5:00 PM75 °FSunny.7 mph57%30.09 "Hg30 mi
4:00 PM73 °FSunny.8 mph69%30.11 "Hg30 mi
3:00 PM73 °FSunny.9 mph69%30.13 "Hg30 mi
2:00 PM73 °FPassing clouds.9 mph69%30.13 "Hg30 mi
1:00 PM72 °FPassing clouds.7 mph73%30.14 "Hg30 mi
12:00 PM70 °FSunny.7 mph78%30.14 "Hg30 mi
Weather by CustomWeather, © 2014

See weather overviewHow to use our weather pages